Wind_Speed
29 26 20 17 17 17 16 14 11 10 11 11 12 13 13 12 11 9 7 5 3 0 3 5 6 8 10 12 14 15 17 18 19 19 19 19 19 19 18 17 15 12 9 8
27 22 19 19 18 16 14 12 11 12 12 12 13 13 13 12 10 8 7 5 3 2 3 4 6 7 9 11 13 15 16 18 18 19 19 19 19 19 19 19 17 14 12 9
23 19 19 18 16 14 13 12 12 13 13 13 13 12 12 11 9 8 7 6 5 3 2 3 5 7 9 11 12 14 16 17 18 19 19 19 19 19 19 19 18 16 14 12
22 20 18 17 15 14 13 13 14 14 13 13 13 12 12 10 9 8 7 7 6 4 2 2 4 6 8 10 12 13 15 17 18 18 19 19 19 19 19 19 19 17 15 13
20 19 17 16 15 15 15 14 14 14 14 12 12 12 11 9 8 8 8 7 6 5 3 2 3 5 7 9 11 13 14 16 17 18 19 19 19 19 19 19 19 18 17 15
19 18 17 16 16 15 15 15 15 15 14 12 12 11 10 9 8 8 9 8 7 5 3 1 2 4 7 8 10 12 14 15 16 17 18 18 19 19 19 19 19 18 18 17
18 18 17 16 15 14 14 15 16 15 14 12 12 11 9 9 9 9 9 8 7 6 4 1 1 4 6 8 10 12 13 15 16 16 17 18 18 18 18 18 18 18 18 17
16 17 17 16 15 15 14 15 15 16 15 13 12 11 9 10 10 9 9 9 8 6 4 2 1 3 6 8 10 12 13 14 15 16 16 17 17 17 18 18 18 18 17 17
15 16 16 16 16 15 15 15 16 16 15 14 12 10 10 11 11 11 10 9 8 7 5 3 0 3 5 7 10 11 13 14 15 15 16 16 16 17 16 17 17 17 17 17
14 14 14 14 15 15 15 15 15 16 15 14 12 11 11 12 12 12 11 10 9 7 5 3 1 2 5 7 9 11 13 14 15 15 15 15 15 16 16 16 16 16 16 16
12 14 14 14 14 15 15 15 15 16 15 14 12 10 12 12 12 12 12 11 9 8 6 4 2 2 4 7 9 11 12 13 14 14 15 15 15 15 15 15 15 15 16 15
11 13 15 15 15 16 16 16 16 16 15 14 13 9 12 12 12 13 12 11 10 8 7 5 3 3 4 7 9 10 12 13 14 14 14 15 15 15 15 15 15 15 15 15
12 13 14 15 16 16 17 16 17 17 16 15 13 9 13 13 13 14 13 12 11 9 8 6 5 4 5 7 8 10 12 13 13 14 15 15 15 15 15 15 15 15 14 14
13 14 16 16 18 19 18 18 18 18 16 14 12 11 13 15 15 15 14 13 12 10 9 7 6 5 5 7 8 10 11 12 13 14 15 15 15 15 15 15 15 15 15 15
16 17 17 17 19 20 20 19 19 18 17 15 13 12 14 15 15 15 15 14 12 11 10 9 7 7 7 8 9 10 11 12 13 14 15 15 16 16 16 15 15 15 15 15
19 20 19 19 20 21 20 18 19 18 17 16 14 13 15 15 16 16 15 14 13 12 11 10 8 8 8 9 9 10 11 12 13 14 15 16 17 17 17 17 17 17 16 16
21 21 21 20 21 22 18 17 19 18 17 16 15 14 16 15 16 16 16 15 14 13 12 11 10 9 9 9 10 10 11 12 13 14 15 17 17 18 18 19 19 19 18 18
22 23 23 22 22 21 16 18 19 19 17 17 15 16 16 17 17 17 16 15 15 14 13 12 11 11 10 10 11 11 12 13 14 15 16 17 18 19 20 20 20 20 20 19
23 23 24 24 23 20 16 18 19 19 17 17 17 17 17 18 18 17 17 17 16 15 14 14 13 12 12 12 12 12 12 13 14 15 16 18 19 20 21 21 22 21 21 21
24 24 25 24 24 21 16 19 20 19 16 18 19 18 18 19 18 19 19 18 17 17 16 15 14 13 13 13 13 13 13 14 15 16 17 18 19 21 22 22 23 23 22 22
26 26 26 26 25 21 18 21 21 20 18 20 20 20 20 20 21 21 21 20 19 18 18 17 16 15 15 15 14 14 15 15 16 16 17 19 20 21 22 23 23 23 23 23
29 29 29 28 27 23 21 22 23 23 23 23 23 22 22 22 22 22 22 22 21 20 19 18 18 17 17 17 16 16 16 16 17 17 18 19 21 22 23 24 24 24 24 24
33 33 32 31 29 27 26 26 26 26 25 25 26 25 25 24 24 24 24 23 23 22 21 21 20 19 19 19 18 18 18 18 18 19 20 21 22 23 24 25 25 25 25 24
37 37 37 35 32 31 31 30 29 29 28 28 28 28 28 27 27 27 26 25 25 24 23 23 22 22 21 21 20 20 20 20 20 20 21 22 23 24 25 25 26 26 26 25
41 41 41 40 37 36 35 34 33 32 31 31 30 30 30 30 29 29 28 28 27 26 26 25 25 24 24 23 23 22 22 22 22 22 23 23 24 25 26 26 27 27 27 27
44 45 46 45 42 43 40 38 38 36 35 35 34 33 32 32 31 31 30 30 29 28 28 27 27 27 26 25 25 25 24 24 24 24 25 25 26 27 27 28 28 28 28 28
Wind_Direction
214 217 218 221 227 234 245 255 262 267 273 276 278 276 276 276 271 262 261 264 262 126 70 48 38 31 28 26 24 22 21 20 18 16 15 14 13 12 11 10 6 0 348 331
211 212 211 216 224 234 248 256 260 265 269 272 274 275 274 270 258 247 245 241 223 164 95 57 41 32 28 25 24 22 21 20 19 18 17 16 16 16 16 16 15 12 7 359
210 208 211 216 223 234 244 250 256 263 267 269 271 270 266 258 244 233 228 226 209 173 112 67 44 33 27 24 22 21 20 19 18 18 18 17 17 18 17 17 18 17 16 14
205 205 208 213 220 229 237 245 253 261 266 269 271 264 258 249 234 224 219 218 204 181 138 79 47 33 26 24 22 21 19 19 18 17 17 17 17 17 18 19 19 19 19 17
204 205 207 211 218 227 236 244 253 261 266 271 271 265 257 246 232 221 217 213 203 188 163 102 47 31 27 24 21 19 18 17 16 16 17 17 17 18 18 19 20 21 21 21
202 205 209 212 219 226 235 244 253 259 266 270 268 266 256 246 234 221 216 213 205 194 177 133 43 28 25 21 18 16 14 14 14 14 15 15 16 16 18 19 20 21 22 22
201 205 208 212 220 228 238 248 254 260 267 270 265 263 254 247 238 225 218 214 208 199 191 181 35 25 21 17 14 12 10 10 10 11 12 12 13 14 16 17 19 20 22 22
203 205 210 213 222 231 241 251 258 264 267 266 261 260 250 246 241 229 221 216 212 206 204 205 43 24 17 13 11 8 7 6 6 8 9 9 10 12 14 15 17 18 20 21
201 206 212 218 227 238 247 254 260 266 268 267 263 259 247 242 238 232 223 216 214 211 211 211 234 14 10 8 6 5 5 5 5 5 7 7 8 10 11 13 14 16 18 19
202 210 219 225 233 243 253 258 261 267 271 268 263 256 242 236 236 231 223 219 217 215 215 215 237 352 0 1 1 1 1 2 3 4 5 6 6 7 8 9 10 12 14 16
212 218 226 235 243 251 256 261 264 268 271 270 262 251 239 235 233 228 224 222 220 219 221 222 247 322 346 352 355 357 359 360 1 2 3 4 5 6 6 6 6 8 9 12
223 230 234 242 248 255 259 262 265 267 269 267 262 245 240 237 231 228 226 224 224 224 225 231 252 298 331 343 349 353 355 358 360 1 2 2 3 3 4 4 4 5 6 7
238 239 241 245 252 258 261 263 264 265 266 266 261 246 241 239 233 229 226 224 225 226 229 237 252 283 315 333 342 347 352 355 358 360 0 0 1 1 1 1 1 1 1 1
252 249 251 254 257 256 257 259 261 263 265 264 256 246 242 239 233 228 226 223 225 227 233 241 254 276 303 323 333 341 348 352 355 357 357 358 358 357 356 355 356 356 355 353
262 261 259 259 261 259 257 258 259 260 260 258 249 244 240 238 232 228 225 224 225 228 233 242 255 273 293 311 323 333 341 347 350 353 354 355 355 354 352 349 348 347 346 344
265 266 264 263 263 262 260 258 258 256 255 254 248 240 241 237 232 228 225 225 226 228 234 243 255 270 288 303 315 325 334 340 345 347 349 351 351 350 349 347 345 342 340 337
266 267 266 265 264 264 263 258 254 252 250 250 245 238 240 238 233 230 228 228 229 232 238 246 256 270 284 296 307 317 326 333 338 342 344 346 347 347 346 344 342 339 336 332
267 267 268 268 266 265 261 256 254 252 249 249 245 241 241 239 236 234 233 233 235 238 243 249 258 269 280 290 299 308 317 325 331 335 338 341 342 343 343 341 339 337 334 331
270 269 269 269 269 266 259 259 255 251 248 250 247 242 241 240 239 239 238 238 240 244 247 252 260 268 277 284 292 300 309 317 324 328 333 336 339 340 340 339 338 337 335 332
269 268 268 268 268 264 257 256 254 253 248 247 246 242 240 240 240 240 241 242 245 248 251 255 261 267 274 280 287 294 302 310 317 323 328 332 334 336 338 338 338 336 335 333
266 266 266 266 266 264 259 255 253 251 244 241 243 243 242 241 241 243 244 246 248 250 253 256 261 266 271 276 282 288 296 303 310 317 322 326 330 333 335 336 336 335 333 331
263 263 263 263 264 262 255 253 251 247 244 242 241 242 243 243 244 246 248 248 249 250 253 257 261 265 269 273 278 283 290 296 303 310 316 321 326 329 331 332 333 332 330 328
261 260 260 260 260 258 254 252 250 247 245 243 242 242 243 244 246 247 248 249 251 252 254 257 260 264 267 270 274 279 285 291 298 304 310 315 320 324 327 329 329 330 328 326
258 257 257 256 255 254 252 251 249 246 244 242 242 242 242 243 245 247 249 251 252 253 254 256 260 263 265 268 272 277 282 288 294 300 306 310 315 319 322 325 326 326 326 325
256 256 255 254 253 251 249 249 247 246 244 242 242 243 244 244 245 246 248 250 252 253 254 256 259 261 263 266 270 274 279 285 290 296 301 306 310 314 317 320 322 323 323 322
256 255 255 253 251 249 246 246 246 246 244 242 242 242 244 245 245 246 247 249 250 252 254 255 257 259 262 265 268 272 277 282 287 292 297 302 306 310 313 315 316 318 318 318
Height
5818 5825 5831 5837 5840 5842 5844 5845 5846 5847 5847 5847 5847 5846 5845 5845 5844 5843 5842 5841 5841 5839 5838 5837 5836 5834 5832 5830 5827 5824 5821 5817 5813 5810 5806 5802 5798 5794 5790 5786 5783 5780 5778 5777
5818 5824 5830 5834 5837 5840 5842 5843 5844 5845 5845 5845 5844 5844 5843 5842 5842 5841 5840 5840 5840 5839 5838 5837 5835 5834 5832 5830 5827 5824 5821 5818 5814 5811 5807 5803 5799 5795 5791 5787 5784 5781 5778 5776
5818 5825 5828 5832 5835 5838 5840 5841 5842 5842 5842 5842 5842 5842 5840 5840 5840 5839 5839 5839 5838 5838 5837 5836 5835 5834 5832 5830 5827 5825 5822 5819 5815 5812 5808 5804 5801 5797 5793 5789 5785 5782 5779 5777
5817 5822 5826 5830 5833 5836 5837 5838 5839 5839 5840 5839 5840 5839 5838 5838 5838 5837 5837 5838 5837 5837 5836 5836 5835 5833 5832 5830 5827 5825 5822 5819 5816 5813 5809 5806 5802 5798 5794 5791 5787 5784 5780 5778
5817 5821 5825 5828 5831 5833 5834 5836 5837 5837 5837 5837 5836 5836 5836 5835 5835 5836 5836 5836 5836 5836 5836 5835 5834 5833 5831 5830 5828 5825 5823 5820 5817 5814 5810 5807 5803 5800 5796 5792 5789 5785 5782 5779
5816 5820 5823 5826 5828 5831 5832 5834 5834 5834 5834 5835 5834 5834 5834 5833 5834 5834 5835 5835 5835 5835 5835 5834 5834 5832 5831 5829 5827 5825 5823 5820 5817 5814 5811 5808 5805 5801 5798 5794 5791 5787 5784 5781
5815 5819 5822 5825 5827 5829 5830 5831 5832 5832 5832 5832 5832 5831 5833 5832 5832 5832 5833 5834 5834 5834 5834 5833 5833 5832 5830 5829 5827 5825 5823 5820 5818 5815 5812 5809 5805 5802 5799 5795 5792 5789 5786 5783
5815 5818 5821 5823 5825 5826 5828 5829 5830 5830 5830 5830 5829 5829 5831 5830 5830 5830 5831 5832 5833 5833 5833 5832 5832 5831 5830 5828 5827 5825 5823 5820 5818 5815 5812 5809 5806 5803 5800 5797 5793 5790 5787 5784
5814 5818 5820 5822 5823 5825 5826 5826 5827 5827 5827 5827 5827 5828 5828 5828 5828 5829 5830 5830 5831 5831 5831 5831 5831 5830 5829 5828 5826 5824 5822 5820 5817 5815 5812 5809 5806 5803 5801 5798 5795 5792 5788 5786
5814 5817 5819 5820 5822 5823 5824 5824 5824 5824 5824 5824 5825 5825 5826 5826 5826 5827 5828 5828 5829 5830 5830 5830 5829 5829 5828 5827 5825 5824 5822 5819 5817 5814 5812 5809 5806 5804 5801 5798 5795 5792 5789 5787
5814 5816 5818 5819 5820 5820 5822 5822 5821 5821 5822 5822 5822 5825 5823 5824 5824 5825 5826 5826 5827 5828 5828 5828 5828 5828 5827 5826 5824 5823 5821 5819 5816 5814 5812 5809 5806 5804 5801 5798 5795 5793 5790 5787
5812 5814 5815 5817 5817 5818 5818 5819 5819 5819 5819 5819 5819 5824 5821 5821 5821 5822 5823 5824 5825 5826 5826 5826 5826 5826 5826 5825 5823 5822 5820 5818 5816 5813 5811 5809 5806 5803 5801 5798 5795 5793 5790 5787
5811 5812 5813 5814 5816 5816 5815 5815 5815 5816 5816 5816 5817 5821 5818 5818 5819 5819 5821 5822 5823 5824 5824 5825 5825 5824 5824 5823 5822 5821 5819 5817 5815 5813 5810 5808 5805 5803 5800 5798 5795 5792 5790 5787
5809 5810 5811 5812 5811 5811 5811 5812 5812 5812 5813 5813 5815 5816 5816 5815 5816 5817 5818 5819 5820 5821 5822 5822 5823 5822 5822 5821 5820 5819 5817 5816 5814 5812 5809 5807 5805 5802 5799 5797 5794 5792 5789 5787
5806 5806 5806 5807 5807 5806 5807 5808 5808 5808 5809 5810 5811 5812 5812 5812 5813 5814 5815 5816 5817 5819 5819 5820 5820 5820 5820 5819 5818 5817 5816 5814 5812 5810 5808 5806 5803 5801 5798 5796 5793 5790 5788 5785
5802 5802 5802 5803 5802 5802 5802 5804 5804 5804 5805 5806 5807 5809 5808 5809 5809 5811 5812 5813 5814 5816 5817 5817 5817 5817 5817 5817 5816 5815 5814 5812 5810 5808 5806 5804 5801 5799 5796 5793 5791 5788 5785 5783
5797 5797 5797 5798 5797 5797 5799 5800 5799 5800 5801 5802 5803 5805 5804 5806 5806 5807 5809 5810 5811 5812 5813 5814 5814 5814 5814 5814 5813 5812 5811 5810 5808 5806 5804 5802 5799 5796 5794 5791 5788 5785 5783 5780
5792 5792 5792 5792 5793 5792 5797 5795 5794 5795 5797 5798 5799 5800 5801 5802 5803 5804 5805 5806 5808 5809 5810 5810 5811 5811 5811 5810 5810 5809 5808 5807 5805 5803 5801 5799 5796 5794 5791 5788 5785 5782 5779 5776
5787 5786 5786 5786 5786 5787 5791 5790 5789 5790 5793 5794 5795 5796 5797 5798 5799 5801 5801 5802 5804 5805 5806 5806 5807 5807 5807 5807 5806 5806 5805 5804 5802 5800 5798 5796 5793 5791 5788 5785 5782 5778 5775 5772
5781 5781 5781 5781 5780 5782 5787 5785 5784 5786 5789 5789 5789 5791 5792 5793 5795 5797 5797 5798 5799 5800 5801 5802 5802 5802 5802 5802 5802 5802 5801 5800 5799 5797 5795 5793 5790 5787 5784 5781 5778 5775 5771 5768
5775 5774 5775 5774 5774 5777 5780 5778 5779 5782 5784 5783 5783 5785 5787 5788 5790 5791 5792 5794 5794 5795 5796 5797 5797 5798 5798 5798 5798 5797 5797 5796 5795 5793 5791 5789 5786 5784 5781 5778 5774 5771 5768 5764
5767 5767 5767 5767 5768 5773 5772 5772 5773 5774 5775 5776 5777 5779 5780 5782 5783 5785 5787 5788 5789 5790 5791 5791 5792 5792 5793 5793 5793 5792 5792 5791 5790 5789 5787 5785 5782 5779 5777 5773 5770 5767 5764 5760
5758 5759 5758 5760 5763 5764 5764 5764 5765 5766 5768 5769 5770 5772 5773 5775 5777 5778 5780 5781 5783 5784 5785 5785 5786 5786 5787 5787 5787 5787 5787 5786 5785 5783 5781 5779 5777 5775 5772 5769 5766 5762 5759 5756
5748 5747 5748 5750 5753 5754 5755 5755 5756 5757 5759 5761 5762 5764 5766 5768 5769 5771 5773 5774 5775 5777 5778 5778 5779 5780 5780 5781 5781 5781 5780 5780 5779 5777 5776 5774 5772 5769 5767 5764 5761 5758 5754 5751
5736 5736 5736 5738 5741 5742 5744 5745 5747 5748 5750 5752 5753 5755 5757 5759 5761 5763 5764 5766 5767 5769 5770 5771 5772 5773 5773 5774 5774 5774 5774 5773 5772 5771 5769 5768 5766 5763 5761 5758 5755 5752 5749 5745
5723 5723 5722 5725 5728 5728 5733 5735 5736 5738 5740 5742 5744 5746 5748 5750 5752 5754 5756 5757 5759 5761 5762 5763 5764 5765 5765 5766 5766 5766 5766 5766 5765 5764 5763 5761 5759 5757 5754 5751 5749 5746 5743 5739